DW6276 Weather Reports


Display with metric or nautical units.
time (UTC)temp
F
wind
direction
speed
MPH
gust
MPH
rain 1hr
in
rain 24hr
in
rain mn
in
humidity
%
barometer
mb
20260510211015 61 0 9.0 18.0 0.00 0.00 0.00 28 1020.2
20260510210015 61 23 6.0 11.0 0.00 0.00 0.00 29 1020.1
20260510205035 62 23 9.0 20.0 0.00 0.00 0.00 28 1020.0
20260510204015 61 0 9.0 16.0 0.00 0.00 0.00 27 1020.1
20260510203015 62 23 12.0 18.0 0.00 0.00 0.00 29 1020.2
20260510202015 61 0 7.0 13.0 0.00 0.00 0.00 29 1020.2
20260510201015 61 0 12.0 23.0 0.00 0.00 0.00 30 1020.0
20260510200015 61 338 9.0 15.0 0.00 0.00 0.00 30 1020.2
20260510195015 61 0 10.0 14.0 0.00 0.00 0.00 31 1020.3
20260510194018 62 315 10.0 15.0 0.00 0.00 0.00 32 1020.2
20260510193017 62 315 9.0 14.0 0.00 0.00 0.00 32 1020.4
20260510192017 61 0 13.0 18.0 0.00 0.00 0.00 33 1020.4
20260510191017 59 0 11.0 19.0 0.00 0.00 0.00 35 1020.2
20260510190017 60 338 8.0 14.0 0.00 0.00 0.00 35 1020.2
20260510185017 59 0 12.0 19.0 0.00 0.00 0.00 35 1020.2
20260510184058 60 338 8.0 15.0 0.00 0.00 0.00 36 1020.3
20260510183017 60 315 8.0 15.0 0.00 0.00 0.00 35 1020.4
20260510182037 60 45 9.0 18.0 0.00 0.00 0.00 36 1020.3
20260510181017 59 315 11.0 18.0 0.00 0.00 0.00 37 1020.4
20260510180017 60 315 10.0 17.0 0.00 0.00 0.00 35 1020.4
20260510175017 59 23 6.0 12.0 0.00 0.00 0.00 38 1020.4
20260510174017 58 315 5.0 11.0 0.00 0.00 0.00 37 1020.5
20260510173017 59 23 11.0 18.0 0.00 0.00 0.00 36 1020.5
20260510172017 58 338 9.0 14.0 0.00 0.00 0.00 37 1020.4
20260510171037 58 23 8.0 11.0 0.00 0.00 0.00 36 1020.5
20260510170017 58 23 9.0 14.0 0.00 0.00 0.00 37 1020.5
20260510165017 58 338 7.0 13.0 0.00 0.00 0.00 39 1020.4
20260510164017 57 0 7.0 15.0 0.00 0.00 0.00 37 1020.8
20260510163017 57 45 4.0 7.0 0.00 0.00 0.00 39 1020.8
20260510162017 57 45 5.0 11.0 0.00 0.00 0.00 40 1020.7
20260510161037 56 23 6.0 10.0 0.00 0.00 0.00 38 1020.6
20260510160017 56 23 5.0 10.0 0.00 0.00 0.00 39 1020.5
20260510155017 56 45 5.0 9.0 0.00 0.00 0.00 40 1020.5
20260510154017 55 23 5.0 12.0 0.00 0.00 0.00 40 1020.5
20260510153017 55 23 6.0 11.0 0.00 0.00 0.00 41 1020.5
20260510152017 55 45 6.0 11.0 0.00 0.00 0.00 40 1020.3
20260510151017 54 45 8.0 11.0 0.00 0.00 0.00 40 1020.3
20260510150017 54 45 8.0 11.0 0.00 0.00 0.00 41 1020.3
20260510145016 54 23 8.0 11.0 0.00 0.00 0.00 42 1020.3
20260510144016 53 45 7.0 14.0 0.00 0.00 0.00 43 1020.4
20260510143017 53 45 7.0 13.0 0.00 0.00 0.00 43 1020.5
20260510142017 52 68 6.0 11.0 0.00 0.00 0.00 45 1020.3
20260510141017 52 23 7.0 13.0 0.00 0.00 0.00 46 1020.4
20260510140017 50 23 3.0 6.0 0.00 0.00 0.00 51 1020.4
20260510135037 49 0 5.0 7.0 0.00 0.00 0.00 51 1020.3
20260510134016 48 338 4.0 7.0 0.00 0.00 0.00 53 1020.3
20260510133016 47 338 2.0 4.0 0.00 0.00 0.00 55 1020.3
20260510132016 46 315 1.0 3.0 0.00 0.00 0.00 54 1020.1
20260510131036 45 315 2.0 3.0 0.00 0.00 0.00 56 1020.0
20260510130017 45 0 1.0 2.0 0.00 0.00 0.00 57 1020.1
20260510125016 44 23 3.0 4.0 0.00 0.00 0.00 57 1020.0
20260510124016 44 23 5.0 7.0 0.00 0.00 0.00 59 1019.9
20260510123016 43 45 4.0 5.0 0.00 0.00 0.00 64 1019.6
20260510122016 41 0.0 2.0 0.00 0.00 0.00 70 1019.4
20260510121036 39 0.0 0.0 0.00 0.00 0.00 72 1019.2
20260510120037 38 0.0 0.0 0.00 0.00 0.00 73 1019.1
20260510115036 37 0.0 0.0 0.00 0.00 0.00 73 1018.9
20260510114016 37 0.0 2.0 0.00 0.00 0.00 72 1018.6
20260510113016 36 0.0 1.0 0.00 0.00 0.00 71 1018.6
20260510112016 36 0.0 2.0 0.00 0.00 0.00 71 1018.5
20260510111036 36 0.0 1.0 0.00 0.00 0.00 70 1018.4
20260510110016 36 203 3.0 3.0 0.00 0.00 0.00 71 1018.4
20260510105016 35 0.0 2.0 0.00 0.00 0.00 73 1018.4
20260510104016 36 0.0 2.0 0.00 0.00 0.00 72 1018.4
20260510103016 35 203 1.0 2.0 0.00 0.00 0.00 72 1018.4
20260510102016 36 0.0 0.0 0.00 0.00 0.00 71 1018.2
20260510101016 36 203 1.0 2.0 0.00 0.00 0.00 70 1017.9
20260510100036 37 203 1.0 2.0 0.00 0.00 0.00 69 1017.9
20260510095016 37 203 1.0 1.0 0.00 0.00 0.00 71 1017.9
20260510094016 36 0.0 1.0 0.00 0.00 0.00 72 1017.7
20260510093016 35 0.0 2.0 0.00 0.00 0.00 72 1017.6
20260510092036 35 0.0 0.0 0.00 0.00 0.00 73 1017.5
20260510091036 35 0.0 0.0 0.00 0.00 0.00 72 1017.4
20260510090016 35 0.0 2.0 0.00 0.00 0.00 72 1017.3
20260510085036 35 203 1.0 2.0 0.00 0.00 0.00 71 1017.3
20260510084036 35 0.0 1.0 0.00 0.00 0.00 70 1017.2
20260510083016 36 0.0 1.0 0.00 0.00 0.00 68 1017.1
20260510082016 36 0.0 2.0 0.00 0.00 0.00 68 1016.9
20260510081036 36 0.0 2.0 0.00 0.00 0.00 68 1016.8
20260510080016 36 0.0 0.0 0.00 0.00 0.00 66 1016.7
20260510075016 37 0.0 2.0 0.00 0.00 0.00 66 1016.6
20260510074016 38 0.0 1.0 0.00 0.00 0.00 64 1016.5
20260510073036 39 0.0 1.0 0.00 0.00 0.00 64 1016.6
20260510072016 38 0.0 0.0 0.00 0.00 0.00 65 1016.5
20260510071036 38 0.0 0.0 0.00 0.00 0.00 65 1016.5
20260510070016 37 0.0 0.0 0.00 0.00 0.00 65 1016.4
20260510065016 37 0.0 0.0 0.00 0.00 0.00 65 1016.3
20260510064016 37 0.0 0.0 0.00 0.00 0.00 63 1016.4
20260510063015 37 0.0 2.0 0.00 0.00 0.00 61 1016.4
20260510062016 38 0.0 2.0 0.00 0.00 0.00 60 1016.3
20260510061015 39 0.0 0.0 0.00 0.00 0.00 58 1016.2
20260510060016 40 225 1.0 2.0 0.00 0.00 0.00 55 1016.2
20260510055016 42 225 2.0 2.0 0.00 0.00 0.00 50 1016.3
20260510054016 43 0.0 0.0 0.00 0.00 0.00 50 1016.3
20260510053015 44 0.0 0.0 0.00 0.00 0.00 49 1016.4
20260510052036 45 0 1.0 2.0 0.00 0.00 0.00 48 1016.3
20260510051015 46 0 2.0 2.0 0.00 0.00 0.00 46 1016.2
20260510050015 44 0 2.0 2.0 0.00 0.00 0.00 48 1016.2
20260510045016 45 338 2.0 3.0 0.00 0.00 0.00 47 1016.2
20260510044036 47 338 3.0 4.0 0.00 0.00 0.00 45 1016.1
20260510043016 48 338 3.0 4.0 0.00 0.00 0.00 43 1016.1
20260510042016 48 338 3.0 4.0 0.00 0.00 0.00 43 1016.0
20260510041016 47 338 3.0 3.0 0.00 0.00 0.00 45 1015.9
20260510040016 47 338 3.0 4.0 0.00 0.00 0.00 43 1015.8
20260510035016 48 338 3.0 4.0 0.00 0.00 0.00 42 1015.7
20260510034016 49 338 3.0 4.0 0.00 0.00 0.00 41 1015.6
20260510033036 49 338 3.0 4.0 0.00 0.00 0.00 40 1015.5
20260510032016 50 0 4.0 5.0 0.00 0.00 0.00 38 1015.4
20260510031036 51 338 5.0 7.0 0.00 0.00 0.00 37 1015.2
20260510030016 52 338 5.0 8.0 0.00 0.00 0.00 36 1015.2
20260510025016 52 338 5.0 9.0 0.00 0.00 0.00 37 1015.1
20260510024016 52 338 5.0 8.0 0.00 0.00 0.00 36 1014.7
20260510023016 53 338 6.0 9.0 0.00 0.00 0.00 35 1014.5
20260510022016 53 338 6.0 10.0 0.00 0.00 0.00 35 1014.4
20260510021016 53 338 7.0 11.0 0.00 0.00 0.00 34 1014.1
20260510020016 53 338 6.0 8.0 0.00 0.00 0.00 34 1013.9
20260510015016 54 0 5.0 8.0 0.00 0.00 0.00 34 1013.7
20260510014016 55 0 6.0 10.0 0.00 0.00 0.00 33 1013.5
20260510013016 55 0 6.0 8.0 0.00 0.00 0.00 33 1013.3
20260510012016 55 338 7.0 11.0 0.00 0.00 0.00 32 1013.3
20260510011036 56 0 7.0 11.0 0.00 0.00 0.00 31 1013.0
20260510010016 57 0 8.0 11.0 0.00 0.00 0.00 30 1012.9
20260510005016 57 0 9.0 14.0 0.00 0.00 0.00 29 1012.8
20260510004016 58 23 11.0 16.0 0.00 0.00 0.00 28 1012.6
20260510003016 58 338 11.0 16.0 0.00 0.00 0.00 28 1012.3
20260510002016 59 338 10.0 15.0 0.00 0.00 0.00 28 1012.4
20260510001016 59 0 12.0 18.0 0.00 0.00 0.00 27 1012.1
20260510000016 59 338 14.0 22.0 0.00 0.00 0.00 27 1011.9
20260509235016 60 0 12.0 16.0 0.00 0.00 0.00 27 1011.9
20260509234016 60 0 12.0 19.0 0.00 0.00 0.00 26 1011.7
20260509233016 60 0 11.0 17.0 0.00 0.00 0.00 27 1011.6
20260509232016 60 23 10.0 17.0 0.00 0.00 0.00 27 1011.4
20260509231016 61 23 11.0 16.0 0.00 0.00 0.00 26 1011.4
20260509230056 61 0 9.0 14.0 0.00 0.00 0.00 26 1011.3
20260509225015 61 0 10.0 15.0 0.00 0.00 0.00 27 1011.1
20260509224016 61 338 13.0 19.0 0.00 0.00 0.00 26 1011.0
20260509223015 61 338 12.0 18.0 0.00 0.00 0.00 27 1010.8
20260509222036 62 23 10.0 20.0 0.00 0.00 0.00 27 1010.8
20260509221016 61 338 13.0 17.0 0.00 0.00 0.00 26 1010.7
20260509220036 61 315 12.0 19.0 0.00 0.00 0.00 27 1010.6
20260509215036 61 0 14.0 21.0 0.00 0.00 0.00 25 1010.6
20260509214016 61 338 13.0 20.0 0.00 0.00 0.00 25 1010.4
20260509213015 61 338 14.0 20.0 0.00 0.00 0.00 25 1010.5
20260509212035 61 0 12.0 20.0 0.00 0.00 0.00 26 1010.3